Location: Bernadets
(43.3537°N, 0.3167°E)
Time: 00:20:25
(UTC+00:00)

NOSS 2-3 (C) - Pass Details

Date: 24 October 2021
Orbit: 541 x 1670 km, 63.3° (Epoch: 04 December)

Event Time Altitude Azimuth Distance (km) Brightness Sun altitude
Rises 18:20:26 0° 224° (SW) 2,686 7.6 -15.0°
Reaches altitude 10° 18:22:32 10° 228° (SW) 1,817 6.7 -15.4°
Maximum altitude 18:26:27 63° 310° (NW) 661 3.9 -16.1°
Enters shadow 18:30:53 11° 31° (NNE) 2,049 5.9 -16.9°
